TimeMDT,TemperatureF,Dew PointF,Humidity,Sea Level PressureIn,VisibilityMPH,Wind Direction,Wind SpeedMPH,Gust SpeedMPH,PrecipitationIn,Events,Conditions,WindDirDegrees,DateUTC
12:15 AM,39.2,19.4,45,30.28,10.0,North,5.8,-,N/A,,Clear,360,2011-10-18 06:15:00
12:35 AM,35.6,19.4,52,30.28,10.0,Calm,Calm,-,N/A,,Clear,0,2011-10-18 06:35:00
12:55 AM,33.8,17.6,52,30.30,10.0,North,5.8,-,N/A,,Clear,360,2011-10-18 06:55:00
1:15 AM,35.6,19.4,52,30.31,10.0,North,6.9,-,N/A,,Clear,360,2011-10-18 07:15:00
1:35 AM,32.0,19.4,60,30.31,10.0,ENE,5.8,-,N/A,,Clear,70,2011-10-18 07:35:00
1:55 AM,32.0,17.6,55,30.31,10.0,ESE,5.8,-,N/A,,Clear,120,2011-10-18 07:55:00
2:15 AM,33.8,19.4,56,30.30,10.0,Calm,Calm,-,N/A,,Clear,0,2011-10-18 08:15:00
2:35 AM,32.0,19.4,60,30.29,10.0,East,4.6,-,N/A,,Clear,100,2011-10-18 08:35:00
2:55 AM,30.2,19.4,64,30.30,10.0,East,3.5,-,N/A,,Clear,80,2011-10-18 08:55:00
3:15 AM,30.2,17.6,60,30.29,10.0,Calm,Calm,-,N/A,,Clear,0,2011-10-18 09:15:00
3:35 AM,30.2,17.6,60,30.30,10.0,ENE,4.6,-,N/A,,Clear,60,2011-10-18 09:35:00
4:15 AM,30.2,19.4,64,30.31,10.0,East,4.6,-,N/A,,Clear,80,2011-10-18 10:15:00
4:35 AM,30.2,19.4,64,30.31,10.0,East,3.5,-,N/A,,Clear,90,2011-10-18 10:35:00
4:55 AM,30.2,19.4,64,30.32,10.0,ENE,3.5,-,N/A,,Clear,70,2011-10-18 10:55:00
5:15 AM,30.2,19.4,64,30.33,10.0,Calm,Calm,-,N/A,,Clear,0,2011-10-18 11:15:00
5:35 AM,28.4,19.4,69,30.34,10.0,East,3.5,-,N/A,,Clear,90,2011-10-18 11:35:00
5:55 AM,26.6,17.6,69,30.34,10.0,SE,4.6,-,N/A,,Clear,130,2011-10-18 11:55:00
6:15 AM,26.6,17.6,69,30.34,10.0,SE,3.5,-,N/A,,Clear,130,2011-10-18 12:15:00
6:35 AM,28.4,19.4,69,30.34,10.0,East,3.5,-,N/A,,Clear,90,2011-10-18 12:35:00
6:55 AM,26.6,17.6,69,30.34,10.0,ENE,4.6,-,N/A,,Clear,70,2011-10-18 12:55:00
7:15 AM,26.6,17.6,69,30.34,10.0,Calm,Calm,-,N/A,,Clear,0,2011-10-18 13:15:00
7:35 AM,28.4,19.4,69,30.35,10.0,Calm,Calm,-,N/A,,Clear,0,2011-10-18 13:35:00
8:15 AM,35.6,12.2,38,30.37,10.0,Calm,Calm,-,N/A,,Clear,0,2011-10-18 14:15:00
8:35 AM,37.4,23.0,56,30.39,10.0,Calm,Calm,-,N/A,,Clear,0,2011-10-18 14:35:00
8:55 AM,39.2,21.2,49,30.41,10.0,Calm,Calm,-,N/A,,Clear,0,2011-10-18 14:55:00
9:15 AM,41.0,23.0,49,30.41,10.0,SE,3.5,-,N/A,,Clear,140,2011-10-18 15:15:00
9:55 AM,44.6,23.0,43,30.39,10.0,Calm,Calm,-,N/A,,Clear,0,2011-10-18 15:55:00
10:15 AM,46.4,23.0,40,30.40,10.0,Calm,Calm,-,N/A,,Clear,0,2011-10-18 16:15:00
10:55 AM,50.0,23.0,35,30.40,10.0,Calm,Calm,-,N/A,,Clear,0,2011-10-18 16:55:00
11:15 AM,51.8,23.0,33,30.39,10.0,WNW,4.6,-,N/A,,Clear,300,2011-10-18 17:15:00
11:35 AM,53.6,23.0,30,30.38,10.0,Calm,Calm,-,N/A,,Clear,0,2011-10-18 17:35:00
11:55 AM,57.2,21.2,25,30.38,10.0,North,15.0,19.6,N/A,,Clear,350,2011-10-18 17:55:00
12:15 PM,55.4,19.4,25,30.37,10.0,NNE,12.7,21.9,N/A,,Clear,20,2011-10-18 18:15:00
12:35 PM,57.2,19.4,23,30.36,10.0,North,9.2,-,N/A,,Clear,360,2011-10-18 18:35:00
12:55 PM,57.2,19.4,23,30.36,10.0,North,11.5,16.1,N/A,,Clear,350,2011-10-18 18:55:00
1:15 PM,57.2,17.6,21,30.34,10.0,North,13.8,-,N/A,,Clear,10,2011-10-18 19:15:00
1:35 PM,59.0,17.6,20,30.33,10.0,North,15.0,20.7,N/A,,Clear,350,2011-10-18 19:35:00
1:55 PM,-9999,-9999,N/A,30.32,10.0,NNE,9.2,17.3,N/A,,Clear,30,2011-10-18 19:55:00
2:15 PM,60.8,17.6,19,30.32,10.0,North,15.0,20.7,N/A,,Clear,350,2011-10-18 20:15:00
2:35 PM,-9999,-9999,N/A,30.31,10.0,North,4.6,-,N/A,,Clear,350,2011-10-18 20:35:00
2:55 PM,60.8,17.6,19,30.31,10.0,NNW,11.5,18.4,N/A,,Clear,340,2011-10-18 20:55:00
3:15 PM,60.8,17.6,19,30.31,10.0,North,4.6,-,N/A,,Clear,10,2011-10-18 21:15:00
3:35 PM,60.8,17.6,19,30.30,10.0,NNE,5.8,-,N/A,,Clear,20,2011-10-18 21:35:00
3:55 PM,60.8,17.6,19,30.31,10.0,West,5.8,-,N/A,,Clear,260,2011-10-18 21:55:00
4:15 PM,60.8,17.6,19,30.31,10.0,Calm,Calm,-,N/A,,Clear,0,2011-10-18 22:15:00
4:35 PM,60.8,17.6,19,30.31,10.0,NNW,4.6,-,N/A,,Clear,340,2011-10-18 22:35:00
4:55 PM,60.8,17.6,19,30.30,10.0,NNW,8.1,-,N/A,,Clear,340,2011-10-18 22:55:00
5:15 PM,60.8,17.6,19,30.30,10.0,Calm,Calm,-,N/A,,Clear,0,2011-10-18 23:15:00
5:35 PM,59.0,19.4,22,30.30,10.0,WSW,6.9,-,N/A,,Clear,250,2011-10-18 23:35:00
5:55 PM,57.2,19.4,23,30.30,10.0,SW,4.6,-,N/A,,Clear,230,2011-10-18 23:55:00
6:15 PM,55.4,19.4,25,30.30,10.0,SW,5.8,-,N/A,,Clear,220,2011-10-19 00:15:00
6:35 PM,51.8,19.4,28,30.31,10.0,SW,9.2,-,N/A,,Clear,230,2011-10-19 00:35:00
7:15 PM,48.2,21.2,34,30.32,10.0,SW,8.1,-,N/A,,Clear,230,2011-10-19 01:15:00
7:35 PM,46.4,21.2,37,30.32,10.0,WSW,8.1,-,N/A,,Clear,240,2011-10-19 01:35:00
7:55 PM,46.4,21.2,37,30.32,10.0,WNW,3.5,-,N/A,,Clear,290,2011-10-19 01:55:00
8:15 PM,42.8,19.4,39,30.33,10.0,East,5.8,-,N/A,,Clear,90,2011-10-19 02:15:00
8:35 PM,42.8,21.2,42,30.34,10.0,ENE,5.8,-,N/A,,Clear,70,2011-10-19 02:35:00
9:15 PM,42.8,21.2,42,30.34,10.0,ENE,4.6,-,N/A,,Clear,60,2011-10-19 03:15:00
9:35 PM,42.8,21.2,42,30.35,10.0,NE,3.5,-,N/A,,Clear,50,2011-10-19 03:35:00
9:55 PM,39.2,19.4,45,30.35,10.0,Calm,Calm,-,N/A,,Clear,0,2011-10-19 03:55:00
10:15 PM,37.4,19.4,48,30.35,10.0,ESE,3.5,-,N/A,,Clear,120,2011-10-19 04:15:00
10:55 PM,37.4,21.2,52,30.35,10.0,Calm,Calm,-,N/A,,Clear,0,2011-10-19 04:55:00
11:15 PM,35.6,19.4,52,30.35,10.0,NNW,5.8,-,N/A,,Clear,340,2011-10-19 05:15:00
11:35 PM,35.6,19.4,52,30.35,10.0,North,6.9,-,N/A,,Clear,350,2011-10-19 05:35:00
11:55 PM,33.8,19.4,56,30.35,10.0,North,8.1,-,N/A,,Clear,10,2011-10-19 05:55:00